Year,Month,Day,Hour,Minute,Value (Times are PST for temperature in C)
2015,07,18,00,00,21.00
2015,07,18,00,01,21.00
2015,07,18,00,02,21.00
2015,07,18,00,03,21.00
2015,07,18,00,04,21.00
2015,07,18,00,05,20.90
2015,07,18,00,06,20.90
2015,07,18,00,07,21.00
2015,07,18,00,08,21.00
2015,07,18,00,09,21.00
2015,07,18,00,10,21.00
2015,07,18,00,11,21.00
2015,07,18,00,12,21.00
2015,07,18,00,13,21.00
2015,07,18,00,14,21.00
2015,07,18,00,15,21.00
2015,07,18,00,16,21.00
2015,07,18,00,17,21.10
2015,07,18,00,18,21.10
2015,07,18,00,19,21.10
2015,07,18,00,20,21.10
2015,07,18,00,21,21.10
2015,07,18,00,22,21.10
2015,07,18,00,23,21.10
2015,07,18,00,24,21.10
2015,07,18,00,25,21.10
2015,07,18,00,26,21.10
2015,07,18,00,27,21.10
2015,07,18,00,28,21.10
2015,07,18,00,29,21.10
2015,07,18,00,30,21.10
2015,07,18,00,31,21.10
2015,07,18,00,32,21.10
2015,07,18,00,33,21.10
2015,07,18,00,34,21.10
2015,07,18,00,35,21.20
2015,07,18,00,36,21.20
2015,07,18,00,37,21.20
2015,07,18,00,38,21.20
2015,07,18,00,39,21.20
2015,07,18,00,40,21.20
2015,07,18,00,41,21.20
2015,07,18,00,42,21.20
2015,07,18,00,43,21.20
2015,07,18,00,44,21.20
2015,07,18,00,45,21.20
2015,07,18,00,46,21.10
2015,07,18,00,47,21.10
2015,07,18,00,48,21.10
2015,07,18,00,49,21.10
2015,07,18,00,50,21.00
2015,07,18,00,51,21.00
2015,07,18,00,52,20.90
2015,07,18,00,53,20.90
2015,07,18,00,54,20.90
2015,07,18,00,55,20.90
2015,07,18,00,56,20.80
2015,07,18,00,57,20.80
2015,07,18,00,58,20.80
2015,07,18,00,59,20.80
2015,07,18,01,00,20.80
2015,07,18,01,01,20.70
2015,07,18,01,02,20.70
2015,07,18,01,03,20.70
2015,07,18,01,04,20.60
2015,07,18,01,05,20.60
2015,07,18,01,06,20.60
2015,07,18,01,07,20.60
2015,07,18,01,08,20.60
2015,07,18,01,09,20.60
2015,07,18,01,10,20.60
2015,07,18,01,11,20.60
2015,07,18,01,12,20.60
2015,07,18,01,13,20.50
2015,07,18,01,14,20.50
2015,07,18,01,15,20.50
2015,07,18,01,16,20.50
2015,07,18,01,17,20.60
2015,07,18,01,18,20.60
2015,07,18,01,19,20.60
2015,07,18,01,20,20.60
2015,07,18,01,21,20.60
2015,07,18,01,22,20.60
2015,07,18,01,23,20.70
2015,07,18,01,24,20.70
2015,07,18,01,25,20.70
2015,07,18,01,26,20.70
2015,07,18,01,27,20.70
2015,07,18,01,28,20.70
2015,07,18,01,29,20.70
2015,07,18,01,30,20.70
2015,07,18,01,31,20.70
2015,07,18,01,32,20.70
2015,07,18,01,33,20.70
2015,07,18,01,34,20.70
2015,07,18,01,35,20.70
2015,07,18,01,36,20.60
2015,07,18,01,37,20.60
2015,07,18,01,38,20.60
2015,07,18,01,39,20.60
2015,07,18,01,40,20.50
2015,07,18,01,41,20.50
2015,07,18,01,42,20.40
2015,07,18,01,43,20.40
2015,07,18,01,44,20.40
2015,07,18,01,45,20.40
2015,07,18,01,46,20.40
2015,07,18,01,47,20.40
2015,07,18,01,48,20.40
2015,07,18,01,49,20.40
2015,07,18,01,50,20.50
2015,07,18,01,51,20.50
2015,07,18,01,52,20.50
2015,07,18,01,53,20.60
2015,07,18,01,54,20.60
2015,07,18,01,55,20.60
2015,07,18,01,56,20.60
2015,07,18,01,57,20.60
2015,07,18,01,58,20.60
2015,07,18,01,59,20.60
2015,07,18,02,00,20.60
2015,07,18,02,01,20.60
2015,07,18,02,02,20.60
2015,07,18,02,03,20.50
2015,07,18,02,04,20.50
2015,07,18,02,05,20.40
2015,07,18,02,06,20.40
2015,07,18,02,07,20.40
2015,07,18,02,08,20.40
2015,07,18,02,09,20.40
2015,07,18,02,10,20.30
2015,07,18,02,11,20.30
2015,07,18,02,12,20.30
2015,07,18,02,13,20.30
2015,07,18,02,14,20.30
2015,07,18,02,15,20.20
2015,07,18,02,16,20.20
2015,07,18,02,17,20.20
2015,07,18,02,18,20.20
2015,07,18,02,19,20.20
2015,07,18,02,20,20.10
2015,07,18,02,21,20.10
2015,07,18,02,22,20.10
2015,07,18,02,23,20.10
2015,07,18,02,24,20.10
2015,07,18,02,25,20.10
2015,07,18,02,26,20.10
2015,07,18,02,27,20.10
2015,07,18,02,28,20.10
2015,07,18,02,29,20.10
2015,07,18,02,30,20.20
2015,07,18,02,31,20.20
2015,07,18,02,32,20.20
2015,07,18,02,33,20.20
2015,07,18,02,34,20.20
2015,07,18,02,35,20.30
2015,07,18,02,36,20.30
2015,07,18,02,37,20.30
2015,07,18,02,38,20.30
2015,07,18,02,39,20.30
2015,07,18,02,40,20.30
2015,07,18,02,41,20.30
2015,07,18,02,42,20.30
2015,07,18,02,43,20.30
2015,07,18,02,44,20.20
2015,07,18,02,45,20.20
2015,07,18,02,46,20.20
2015,07,18,02,47,20.20
2015,07,18,02,48,20.10
2015,07,18,02,49,20.10
2015,07,18,02,50,20.10
2015,07,18,02,51,20.00
2015,07,18,02,52,20.00
2015,07,18,02,53,20.00
2015,07,18,02,54,19.90
2015,07,18,02,55,19.90
2015,07,18,02,56,19.90
2015,07,18,02,57,19.90
2015,07,18,02,58,19.80
2015,07,18,02,59,19.80
2015,07,18,03,00,19.80
2015,07,18,03,01,19.80
2015,07,18,03,02,19.80
2015,07,18,03,03,19.80
2015,07,18,03,04,19.70
2015,07,18,03,05,19.70
2015,07,18,03,06,19.70
2015,07,18,03,07,19.70
2015,07,18,03,08,19.60
2015,07,18,03,09,19.60
2015,07,18,03,10,19.50
2015,07,18,03,11,19.50
2015,07,18,03,12,19.40
2015,07,18,03,13,19.40
2015,07,18,03,14,19.30
2015,07,18,03,15,19.30
2015,07,18,03,16,19.20
2015,07,18,03,17,19.20
2015,07,18,03,18,19.20
2015,07,18,03,19,19.10
2015,07,18,03,20,19.10
2015,07,18,03,21,19.00
2015,07,18,03,22,18.90
2015,07,18,03,23,18.90
2015,07,18,03,24,18.90
2015,07,18,03,25,18.80
2015,07,18,03,26,18.80
2015,07,18,03,27,18.80
2015,07,18,03,28,18.80
2015,07,18,03,29,18.70
2015,07,18,03,30,18.70
2015,07,18,03,31,18.70
2015,07,18,03,32,18.60
2015,07,18,03,33,18.60
2015,07,18,03,34,18.60
2015,07,18,03,35,18.60
2015,07,18,03,36,18.50
2015,07,18,03,37,18.50
2015,07,18,03,38,18.50
2015,07,18,03,39,18.40
2015,07,18,03,40,18.40
2015,07,18,03,41,18.40
2015,07,18,03,42,18.40
2015,07,18,03,43,18.30
2015,07,18,03,44,18.30
2015,07,18,03,45,18.30
2015,07,18,03,46,18.30
2015,07,18,03,47,18.30
2015,07,18,03,48,18.30
2015,07,18,03,49,18.30
2015,07,18,03,50,18.30
2015,07,18,03,51,18.30
2015,07,18,03,52,18.20
2015,07,18,03,53,18.20
2015,07,18,03,54,18.20
2015,07,18,03,55,18.20
2015,07,18,03,56,18.20
2015,07,18,03,57,18.20
2015,07,18,03,58,18.20
2015,07,18,03,59,18.20
2015,07,18,04,00,18.20
2015,07,18,04,01,18.10
2015,07,18,04,02,18.10
2015,07,18,04,03,18.10
2015,07,18,04,04,18.10
2015,07,18,04,05,18.10
2015,07,18,04,06,18.10
2015,07,18,04,07,18.10
2015,07,18,04,08,18.10
2015,07,18,04,09,18.10
2015,07,18,04,10,18.10
2015,07,18,04,11,18.00
2015,07,18,04,12,18.00
2015,07,18,04,13,18.00
2015,07,18,04,14,18.00
2015,07,18,04,15,17.90
2015,07,18,04,16,17.90
2015,07,18,04,17,17.90
2015,07,18,04,18,17.90
2015,07,18,04,19,17.90
2015,07,18,04,20,17.90
2015,07,18,04,21,17.90
2015,07,18,04,22,17.80
2015,07,18,04,23,17.80
2015,07,18,04,24,17.80
2015,07,18,04,25,17.80
2015,07,18,04,26,17.80
2015,07,18,04,27,17.90
2015,07,18,04,28,17.90
2015,07,18,04,29,17.90
2015,07,18,04,30,17.90
2015,07,18,04,31,17.90
2015,07,18,04,32,17.90
2015,07,18,04,33,17.90
2015,07,18,04,34,17.90
2015,07,18,04,35,17.80
2015,07,18,04,36,17.80
2015,07,18,04,37,17.80
2015,07,18,04,38,17.80
2015,07,18,04,39,17.80
2015,07,18,04,40,17.80
2015,07,18,04,41,17.80
2015,07,18,04,42,17.80
2015,07,18,04,43,17.80
2015,07,18,04,44,17.80
2015,07,18,04,45,17.80
2015,07,18,04,46,17.80
2015,07,18,04,47,17.80
2015,07,18,04,48,17.80
2015,07,18,04,49,17.70
2015,07,18,04,50,17.80
2015,07,18,04,51,17.80
2015,07,18,04,52,17.80
2015,07,18,04,53,17.80
2015,07,18,04,54,17.80
2015,07,18,04,55,17.70
2015,07,18,04,56,17.70
2015,07,18,04,57,17.70
2015,07,18,04,58,17.70
2015,07,18,04,59,17.70
2015,07,18,05,00,17.60
2015,07,18,05,01,17.60
2015,07,18,05,02,17.60
2015,07,18,05,03,17.60
2015,07,18,05,04,17.60
2015,07,18,05,05,17.60
2015,07,18,05,06,17.60
2015,07,18,05,07,17.60
2015,07,18,05,08,17.60
2015,07,18,05,09,17.60
2015,07,18,05,10,17.60
2015,07,18,05,11,17.70
2015,07,18,05,12,17.70
2015,07,18,05,13,17.70
2015,07,18,05,14,17.70
2015,07,18,05,15,17.70
2015,07,18,05,16,17.80
2015,07,18,05,17,17.80
2015,07,18,05,18,17.80
2015,07,18,05,19,17.80
2015,07,18,05,20,17.80
2015,07,18,05,21,17.80
2015,07,18,05,22,17.80
2015,07,18,05,23,17.80
2015,07,18,05,24,17.80
2015,07,18,05,25,17.80
2015,07,18,05,26,17.70
2015,07,18,05,27,17.70
2015,07,18,05,28,17.70
2015,07,18,05,29,17.70
2015,07,18,05,30,17.70
2015,07,18,05,31,17.70
2015,07,18,05,32,17.60
2015,07,18,05,33,17.60
2015,07,18,05,34,17.60
2015,07,18,05,35,17.50
2015,07,18,05,36,17.50
2015,07,18,05,37,17.50
2015,07,18,05,38,17.50
2015,07,18,05,39,17.40
2015,07,18,05,40,17.40
2015,07,18,05,41,17.40
2015,07,18,05,42,17.40
2015,07,18,05,43,17.40
2015,07,18,05,44,17.40
2015,07,18,05,45,17.40
2015,07,18,05,46,17.40
2015,07,18,05,47,17.40
2015,07,18,05,48,17.40
2015,07,18,05,49,17.40
2015,07,18,05,50,17.40
2015,07,18,05,51,17.40
2015,07,18,05,52,17.50
2015,07,18,05,53,17.50
2015,07,18,05,54,17.50
2015,07,18,05,55,17.50
2015,07,18,05,56,17.50
2015,07,18,05,57,17.60
2015,07,18,05,58,17.60
2015,07,18,05,59,17.60
2015,07,18,06,00,17.60
2015,07,18,06,01,17.60
2015,07,18,06,02,17.60
2015,07,18,06,03,17.70
2015,07,18,06,04,17.70
2015,07,18,06,05,17.80
2015,07,18,06,06,17.80
2015,07,18,06,07,17.80
2015,07,18,06,08,17.80
2015,07,18,06,09,17.90
2015,07,18,06,10,17.90
2015,07,18,06,11,17.90
2015,07,18,06,12,17.90
2015,07,18,06,13,17.90
2015,07,18,06,14,18.00
2015,07,18,06,15,18.00
2015,07,18,06,16,18.00
2015,07,18,06,17,18.00
2015,07,18,06,18,18.10
2015,07,18,06,19,18.10
2015,07,18,06,20,18.10
2015,07,18,06,21,18.10
2015,07,18,06,22,18.10
2015,07,18,06,23,18.10
2015,07,18,06,24,18.20
2015,07,18,06,25,18.20
2015,07,18,06,26,18.20
2015,07,18,06,27,18.20
2015,07,18,06,28,18.20
2015,07,18,06,29,18.20
2015,07,18,06,30,18.30
2015,07,18,06,31,18.30
2015,07,18,06,32,18.30
2015,07,18,06,33,18.40
2015,07,18,06,34,18.40
2015,07,18,06,35,18.40
2015,07,18,06,36,18.50
2015,07,18,06,37,18.50
2015,07,18,06,38,18.60
2015,07,18,06,39,18.60
2015,07,18,06,40,18.70
2015,07,18,06,41,18.70
2015,07,18,06,42,18.70
2015,07,18,06,43,18.80
2015,07,18,06,44,18.80
2015,07,18,06,45,18.80
2015,07,18,06,46,18.90
2015,07,18,06,47,18.90
2015,07,18,06,48,18.90
2015,07,18,06,49,18.90
2015,07,18,06,50,19.00
2015,07,18,06,51,19.00
2015,07,18,06,52,19.10
2015,07,18,06,53,19.10
2015,07,18,06,54,19.10
2015,07,18,06,55,19.20
2015,07,18,06,56,19.20
2015,07,18,06,57,19.20
2015,07,18,06,58,19.20
2015,07,18,06,59,19.20
2015,07,18,07,00,19.20
2015,07,18,07,01,19.20
2015,07,18,07,02,19.20
2015,07,18,07,03,19.30
2015,07,18,07,04,19.30
2015,07,18,07,05,19.30
2015,07,18,07,06,19.40
2015,07,18,07,07,19.40
2015,07,18,07,08,19.50
2015,07,18,07,09,19.50
2015,07,18,07,10,19.60
2015,07,18,07,11,19.60
2015,07,18,07,12,19.70
2015,07,18,07,13,19.80
2015,07,18,07,14,19.80
2015,07,18,07,15,19.90
2015,07,18,07,16,20.00
2015,07,18,07,17,20.00
2015,07,18,07,18,20.10
2015,07,18,07,19,20.10
2015,07,18,07,20,20.10
2015,07,18,07,21,20.20
2015,07,18,07,22,20.20
2015,07,18,07,23,20.20
2015,07,18,07,24,20.30
2015,07,18,07,25,20.30
2015,07,18,07,26,20.30
2015,07,18,07,27,20.40
2015,07,18,07,28,20.40
2015,07,18,07,29,20.40
2015,07,18,07,30,20.50
2015,07,18,07,31,20.60
2015,07,18,07,32,20.60
2015,07,18,07,33,20.70
2015,07,18,07,34,20.70
2015,07,18,07,35,20.80
2015,07,18,07,36,20.80
2015,07,18,07,37,20.80
2015,07,18,07,38,20.90
2015,07,18,07,39,20.90
2015,07,18,07,40,20.90
2015,07,18,07,41,20.90
2015,07,18,07,42,20.90
2015,07,18,07,43,20.90
2015,07,18,07,44,20.90
2015,07,18,07,45,20.90
2015,07,18,07,46,20.90
2015,07,18,07,47,20.90
2015,07,18,07,48,20.90
2015,07,18,07,49,20.90
2015,07,18,07,50,20.90
2015,07,18,07,51,21.00
2015,07,18,07,52,21.00
2015,07,18,07,53,21.10
2015,07,18,07,54,21.20
2015,07,18,07,55,21.20
2015,07,18,07,56,21.20
2015,07,18,07,57,21.30
2015,07,18,07,58,21.30
2015,07,18,07,59,21.30
2015,07,18,08,00,21.30
2015,07,18,08,01,21.20
2015,07,18,08,02,21.20
2015,07,18,08,03,21.20
2015,07,18,08,04,21.10
2015,07,18,08,05,21.00
2015,07,18,08,06,21.00
2015,07,18,08,07,20.90
2015,07,18,08,08,20.90
2015,07,18,08,09,20.90
2015,07,18,08,10,20.90
2015,07,18,08,11,21.00
2015,07,18,08,12,21.00
2015,07,18,08,13,21.10
2015,07,18,08,14,21.10
2015,07,18,08,15,21.20
2015,07,18,08,16,21.20
2015,07,18,08,17,21.30
2015,07,18,08,18,21.20
2015,07,18,08,19,21.20
2015,07,18,08,20,21.20
2015,07,18,08,21,21.10
2015,07,18,08,22,21.10
2015,07,18,08,23,21.10
2015,07,18,08,24,21.10
2015,07,18,08,25,21.10
2015,07,18,08,26,21.20
2015,07,18,08,27,21.20
2015,07,18,08,28,21.20
2015,07,18,08,29,21.30
2015,07,18,08,30,21.30
2015,07,18,08,31,21.40
2015,07,18,08,32,21.50
2015,07,18,08,33,21.60
2015,07,18,08,34,21.70
2015,07,18,08,35,21.70
2015,07,18,08,36,21.70
2015,07,18,08,37,21.60
2015,07,18,08,38,21.50
2015,07,18,08,39,21.50
2015,07,18,08,40,21.40
2015,07,18,08,41,21.40
2015,07,18,08,42,21.40
2015,07,18,08,43,21.40
2015,07,18,08,44,21.40
2015,07,18,08,45,21.40
2015,07,18,08,46,21.40
2015,07,18,08,47,21.40
2015,07,18,08,48,21.40
2015,07,18,08,49,21.40
2015,07,18,08,50,21.50
2015,07,18,08,51,21.60
2015,07,18,08,52,21.60
2015,07,18,08,53,21.70
2015,07,18,08,54,21.70
2015,07,18,08,55,21.70
2015,07,18,08,56,21.70
2015,07,18,08,57,21.80
2015,07,18,08,58,21.80
2015,07,18,08,59,21.80
2015,07,18,09,00,21.80
2015,07,18,09,01,21.80
2015,07,18,09,02,21.80
2015,07,18,09,03,21.80
2015,07,18,09,04,21.80
2015,07,18,09,05,21.80
2015,07,18,09,06,21.80
2015,07,18,09,07,21.80
2015,07,18,09,08,21.80
2015,07,18,09,09,21.80
2015,07,18,09,10,21.90
2015,07,18,09,11,21.90
2015,07,18,09,12,21.90
2015,07,18,09,13,21.90
2015,07,18,09,14,21.90
2015,07,18,09,15,22.00
2015,07,18,09,16,22.00
2015,07,18,09,17,22.00
2015,07,18,09,18,22.00
2015,07,18,09,19,22.10
2015,07,18,09,20,22.20
2015,07,18,09,21,22.20
2015,07,18,09,22,22.20
2015,07,18,09,23,22.20
2015,07,18,09,24,22.20
2015,07,18,09,25,22.20
2015,07,18,09,26,22.20
2015,07,18,09,27,22.20
2015,07,18,09,28,22.20
2015,07,18,09,29,22.20
2015,07,18,09,30,22.20
2015,07,18,09,31,22.10
2015,07,18,09,32,22.10
2015,07,18,09,33,22.10
2015,07,18,09,34,22.00
2015,07,18,09,35,22.00
2015,07,18,09,36,22.00
2015,07,18,09,37,22.00
2015,07,18,09,38,22.00
2015,07,18,09,39,22.00
2015,07,18,09,40,22.00
2015,07,18,09,41,22.00
2015,07,18,09,42,22.00
2015,07,18,09,43,22.00
2015,07,18,09,44,22.00
2015,07,18,09,45,22.10
2015,07,18,09,46,22.20
2015,07,18,09,47,22.30
2015,07,18,09,48,22.40
2015,07,18,09,49,22.50
2015,07,18,09,50,22.60
2015,07,18,09,51,22.60
2015,07,18,09,52,22.70
2015,07,18,09,53,22.70
2015,07,18,09,54,22.80
2015,07,18,09,55,22.80
2015,07,18,09,56,22.90
2015,07,18,09,57,23.00
2015,07,18,09,58,23.10
2015,07,18,09,59,23.10
2015,07,18,10,00,23.10
2015,07,18,10,01,23.10
2015,07,18,10,02,23.10
2015,07,18,10,03,23.10
2015,07,18,10,04,23.10
2015,07,18,10,05,23.10
2015,07,18,10,06,23.10
2015,07,18,10,07,23.10
2015,07,18,10,08,23.20
2015,07,18,10,09,23.20
2015,07,18,10,10,23.20
2015,07,18,10,11,23.20
2015,07,18,10,12,23.20
2015,07,18,10,13,23.20
2015,07,18,10,14,23.20
2015,07,18,10,15,23.20
2015,07,18,10,16,23.20
2015,07,18,10,17,23.20
2015,07,18,10,18,23.30
2015,07,18,10,19,23.30
2015,07,18,10,20,23.30
2015,07,18,10,21,23.30
2015,07,18,10,22,23.30
2015,07,18,10,23,23.20
2015,07,18,10,24,23.20
2015,07,18,10,25,23.20
2015,07,18,10,26,23.10
2015,07,18,10,27,23.10
2015,07,18,10,28,23.10
2015,07,18,10,29,23.00
2015,07,18,10,30,23.00
2015,07,18,10,31,22.90
2015,07,18,10,32,22.90
2015,07,18,10,33,22.80
2015,07,18,10,34,22.80
2015,07,18,10,35,22.70
2015,07,18,10,36,22.60
2015,07,18,10,37,22.60
2015,07,18,10,38,22.50
2015,07,18,10,39,22.40
2015,07,18,10,40,22.40
2015,07,18,10,41,22.30
2015,07,18,10,42,22.30
2015,07,18,10,43,22.30
2015,07,18,10,44,22.30
2015,07,18,10,45,22.30
2015,07,18,10,46,22.40
2015,07,18,10,47,22.50
2015,07,18,10,48,22.70
2015,07,18,10,49,22.70
2015,07,18,10,50,22.80
2015,07,18,10,51,22.90
2015,07,18,10,52,23.00
2015,07,18,10,53,23.00
2015,07,18,10,54,23.00
2015,07,18,10,55,22.90
2015,07,18,10,56,22.80
2015,07,18,10,57,22.60
2015,07,18,10,58,22.60
2015,07,18,10,59,22.60
2015,07,18,11,00,22.60
2015,07,18,11,01,22.60
2015,07,18,11,02,22.70
2015,07,18,11,03,22.80
2015,07,18,11,04,22.90
2015,07,18,11,05,22.90
2015,07,18,11,06,23.00
2015,07,18,11,07,23.10
2015,07,18,11,08,23.10
2015,07,18,11,09,23.00
2015,07,18,11,10,23.00
2015,07,18,11,11,22.90
2015,07,18,11,12,22.90
2015,07,18,11,13,22.80
2015,07,18,11,14,22.80
2015,07,18,11,15,22.80
2015,07,18,11,16,22.80
2015,07,18,11,17,22.80
2015,07,18,11,18,22.80
2015,07,18,11,19,22.90
2015,07,18,11,20,23.00
2015,07,18,11,21,23.00
2015,07,18,11,22,23.00
2015,07,18,11,23,23.00
2015,07,18,11,24,23.00
2015,07,18,11,25,23.00
2015,07,18,11,26,23.00
2015,07,18,11,27,23.10
2015,07,18,11,28,23.10
2015,07,18,11,29,23.20
2015,07,18,11,30,23.30
2015,07,18,11,31,23.30
2015,07,18,11,32,23.30
2015,07,18,11,33,23.30
2015,07,18,11,34,23.30
2015,07,18,11,35,23.30
2015,07,18,11,36,23.30
2015,07,18,11,37,23.40
2015,07,18,11,38,23.50
2015,07,18,11,39,23.60
2015,07,18,11,40,23.60
2015,07,18,11,41,23.70
2015,07,18,11,42,23.80
2015,07,18,11,43,23.80
2015,07,18,11,44,23.80
2015,07,18,11,45,23.80
2015,07,18,11,46,23.90
2015,07,18,11,47,23.90
2015,07,18,11,48,23.80
2015,07,18,11,49,23.80
2015,07,18,11,50,23.80
2015,07,18,11,51,23.80
2015,07,18,11,52,23.80
2015,07,18,11,53,23.80
2015,07,18,11,54,23.90
2015,07,18,11,55,23.90
2015,07,18,11,56,24.00
2015,07,18,11,57,24.00
2015,07,18,11,58,24.00
2015,07,18,11,59,24.00
2015,07,18,12,00,24.00
2015,07,18,12,01,24.10
2015,07,18,12,02,24.20
2015,07,18,12,03,24.30
2015,07,18,12,04,24.30
2015,07,18,12,05,24.40
2015,07,18,12,06,24.50
2015,07,18,12,07,24.60
2015,07,18,12,08,24.60
2015,07,18,12,09,24.50
2015,07,18,12,10,24.50
2015,07,18,12,11,24.50
2015,07,18,12,12,24.50
2015,07,18,12,13,24.60
2015,07,18,12,14,24.60
2015,07,18,12,15,24.60
2015,07,18,12,16,24.70
2015,07,18,12,17,24.70
2015,07,18,12,18,24.70
2015,07,18,12,19,24.70
2015,07,18,12,20,24.80
2015,07,18,12,21,24.80
2015,07,18,12,22,24.80
2015,07,18,12,23,24.70
2015,07,18,12,24,24.60
2015,07,18,12,25,24.60
2015,07,18,12,26,24.50
2015,07,18,12,27,24.40
2015,07,18,12,28,24.40
2015,07,18,12,29,24.40
2015,07,18,12,30,24.40
2015,07,18,12,31,24.40
2015,07,18,12,32,24.30
2015,07,18,12,33,24.30
2015,07,18,12,34,24.30
2015,07,18,12,35,24.30
2015,07,18,12,36,24.30
2015,07,18,12,37,24.30
2015,07,18,12,38,24.30
2015,07,18,12,39,24.40
2015,07,18,12,40,24.40
2015,07,18,12,41,24.40
2015,07,18,12,42,24.40
2015,07,18,12,43,24.40
2015,07,18,12,44,24.40
2015,07,18,12,45,24.40
2015,07,18,12,46,24.30
2015,07,18,12,47,24.30
2015,07,18,12,48,24.30
2015,07,18,12,49,24.30
2015,07,18,12,50,24.40
2015,07,18,12,51,24.50
2015,07,18,12,52,24.50
2015,07,18,12,53,24.60
2015,07,18,12,54,24.70
2015,07,18,12,55,24.80
2015,07,18,12,56,24.80
2015,07,18,12,57,25.00
2015,07,18,12,58,25.00
2015,07,18,12,59,25.10
2015,07,18,13,00,25.10
2015,07,18,13,01,25.10
2015,07,18,13,02,25.10
2015,07,18,13,03,25.10
2015,07,18,13,04,25.10
2015,07,18,13,05,25.20
2015,07,18,13,06,25.30
2015,07,18,13,07,25.20
2015,07,18,13,08,25.20
2015,07,18,13,09,25.20
2015,07,18,13,10,25.20
2015,07,18,13,11,25.20
2015,07,18,13,12,25.30
2015,07,18,13,13,25.40
2015,07,18,13,14,25.40
2015,07,18,13,15,25.50
2015,07,18,13,16,25.50
2015,07,18,13,17,25.60
2015,07,18,13,18,25.50
2015,07,18,13,19,25.50
2015,07,18,13,20,25.60
2015,07,18,13,21,25.60
2015,07,18,13,22,25.60
2015,07,18,13,23,25.60
2015,07,18,13,24,25.60
2015,07,18,13,25,25.60
2015,07,18,13,26,25.60
2015,07,18,13,27,25.70
2015,07,18,13,28,25.70
2015,07,18,13,29,25.80
2015,07,18,13,30,25.80
2015,07,18,13,31,25.80
2015,07,18,13,32,25.80
2015,07,18,13,33,25.70
2015,07,18,13,34,25.70
2015,07,18,13,35,25.60
2015,07,18,13,36,25.60
2015,07,18,13,37,25.50
2015,07,18,13,38,25.50
2015,07,18,13,39,25.40
2015,07,18,13,40,25.50
2015,07,18,13,41,25.50
2015,07,18,13,42,25.50
2015,07,18,13,43,25.60
2015,07,18,13,44,25.60
2015,07,18,13,45,25.50
2015,07,18,13,46,25.60
2015,07,18,13,47,25.60
2015,07,18,13,48,25.60
2015,07,18,13,49,25.70
2015,07,18,13,50,25.80
2015,07,18,13,51,25.90
2015,07,18,13,52,25.90
2015,07,18,13,53,25.90
2015,07,18,13,54,26.00
2015,07,18,13,55,26.10
2015,07,18,13,56,26.30
2015,07,18,13,57,26.40
2015,07,18,13,58,26.60
2015,07,18,13,59,26.70
2015,07,18,14,00,26.70
2015,07,18,14,01,26.70
2015,07,18,14,02,26.60
2015,07,18,14,03,26.60
2015,07,18,14,04,26.60
2015,07,18,14,05,26.70
2015,07,18,14,06,26.70
2015,07,18,14,07,26.70
2015,07,18,14,08,26.70
2015,07,18,14,09,26.80
2015,07,18,14,10,26.80
2015,07,18,14,11,26.90
2015,07,18,14,12,27.00
2015,07,18,14,13,27.10
2015,07,18,14,14,27.10
2015,07,18,14,15,27.20
2015,07,18,14,16,27.20
2015,07,18,14,17,27.20
2015,07,18,14,18,27.20
2015,07,18,14,19,27.20
2015,07,18,14,20,27.20
2015,07,18,14,21,27.20
2015,07,18,14,22,27.20
2015,07,18,14,23,27.20
2015,07,18,14,24,27.30
2015,07,18,14,25,27.30
2015,07,18,14,26,27.30
2015,07,18,14,27,27.40
2015,07,18,14,28,27.40
2015,07,18,14,29,27.40
2015,07,18,14,30,27.40
2015,07,18,14,31,27.50
2015,07,18,14,32,27.60
2015,07,18,14,33,27.60
2015,07,18,14,34,27.60
2015,07,18,14,35,27.70
2015,07,18,14,36,27.70
2015,07,18,14,37,27.70
2015,07,18,14,38,27.70
2015,07,18,14,39,27.80
2015,07,18,14,40,27.80
2015,07,18,14,41,27.90
2015,07,18,14,42,28.00
2015,07,18,14,43,28.10
2015,07,18,14,44,28.20
2015,07,18,14,45,28.30
2015,07,18,14,46,28.40
2015,07,18,14,47,28.50
2015,07,18,14,48,28.60
2015,07,18,14,49,28.60
2015,07,18,14,50,28.60
2015,07,18,14,51,28.70
2015,07,18,14,52,28.60
2015,07,18,14,53,28.60
2015,07,18,14,54,28.50
2015,07,18,14,55,28.50
2015,07,18,14,56,28.40
2015,07,18,14,57,28.30
2015,07,18,14,58,28.20
2015,07,18,14,59,28.10
2015,07,18,15,00,28.10
2015,07,18,15,01,28.10
2015,07,18,15,02,28.10
2015,07,18,15,03,28.00
2015,07,18,15,04,28.00
2015,07,18,15,05,28.00
2015,07,18,15,06,28.00
2015,07,18,15,07,28.00
2015,07,18,15,08,28.00
2015,07,18,15,09,28.00
2015,07,18,15,10,28.00
2015,07,18,15,11,28.00
2015,07,18,15,12,28.10
2015,07,18,15,13,28.10
2015,07,18,15,14,28.10
2015,07,18,15,15,28.10
2015,07,18,15,16,28.10
2015,07,18,15,17,28.10
2015,07,18,15,18,28.20
2015,07,18,15,19,28.30
2015,07,18,15,20,28.40
2015,07,18,15,21,28.50
2015,07,18,15,22,28.50
2015,07,18,15,23,28.60
2015,07,18,15,24,28.60
2015,07,18,15,25,28.60
2015,07,18,15,26,28.60
2015,07,18,15,27,28.60
2015,07,18,15,28,28.70
2015,07,18,15,29,28.70
2015,07,18,15,30,28.70
2015,07,18,15,31,28.70
2015,07,18,15,32,28.70
2015,07,18,15,33,28.60
2015,07,18,15,34,28.60
2015,07,18,15,35,28.60
2015,07,18,15,36,28.50
2015,07,18,15,37,28.50
2015,07,18,15,38,28.50
2015,07,18,15,39,28.50
2015,07,18,15,40,28.40
2015,07,18,15,41,28.40
2015,07,18,15,42,28.40
2015,07,18,15,43,28.50
2015,07,18,15,44,28.60
2015,07,18,15,45,28.70
2015,07,18,15,46,28.70
2015,07,18,15,47,28.80
2015,07,18,15,48,28.90
2015,07,18,15,49,29.00
2015,07,18,15,50,29.00
2015,07,18,15,51,29.10
2015,07,18,15,52,29.10
2015,07,18,15,53,29.10
2015,07,18,15,54,29.00
2015,07,18,15,55,28.90
2015,07,18,15,56,28.80
2015,07,18,15,57,28.70
2015,07,18,15,58,28.60
2015,07,18,15,59,28.50
2015,07,18,16,00,28.40
2015,07,18,16,01,28.40
2015,07,18,16,02,28.40
2015,07,18,16,03,28.40
2015,07,18,16,04,28.40
2015,07,18,16,05,28.40
2015,07,18,16,06,28.50
2015,07,18,16,07,28.50
2015,07,18,16,08,28.50
2015,07,18,16,09,28.60
2015,07,18,16,10,28.70
2015,07,18,16,11,28.70
2015,07,18,16,12,28.80
2015,07,18,16,13,28.90
2015,07,18,16,14,29.10
2015,07,18,16,15,29.20
2015,07,18,16,16,29.30
2015,07,18,16,17,29.40
2015,07,18,16,18,29.40
2015,07,18,16,19,29.40
2015,07,18,16,20,29.40
2015,07,18,16,21,29.30
2015,07,18,16,22,29.30
2015,07,18,16,23,29.30
2015,07,18,16,24,29.30
2015,07,18,16,25,29.30
2015,07,18,16,26,29.40
2015,07,18,16,27,29.40
2015,07,18,16,28,29.50
2015,07,18,16,29,29.50
2015,07,18,16,30,29.60
2015,07,18,16,31,29.60
2015,07,18,16,32,29.70
2015,07,18,16,33,29.80
2015,07,18,16,34,29.80
2015,07,18,16,35,29.80
2015,07,18,16,36,29.90
2015,07,18,16,37,29.90
2015,07,18,16,38,29.90
2015,07,18,16,39,30.00
2015,07,18,16,40,30.10
2015,07,18,16,41,30.10
2015,07,18,16,42,30.10
2015,07,18,16,43,30.00
2015,07,18,16,44,29.90
2015,07,18,16,45,29.90
2015,07,18,16,46,29.80
2015,07,18,16,47,29.70
2015,07,18,16,48,29.70
2015,07,18,16,49,29.70
2015,07,18,16,50,29.70
2015,07,18,16,51,29.70
2015,07,18,16,52,29.80
2015,07,18,16,53,29.80
2015,07,18,16,54,29.90
2015,07,18,16,55,29.90
2015,07,18,16,56,29.90
2015,07,18,16,57,29.90
2015,07,18,16,58,29.90
2015,07,18,16,59,29.90
2015,07,18,17,00,29.80
2015,07,18,17,01,29.80
2015,07,18,17,02,29.80
2015,07,18,17,03,29.70
2015,07,18,17,04,29.70
2015,07,18,17,05,29.70
2015,07,18,17,06,29.70
2015,07,18,17,07,29.70
2015,07,18,17,08,29.70
2015,07,18,17,09,29.80
2015,07,18,17,10,29.80
2015,07,18,17,11,29.80
2015,07,18,17,12,29.80
2015,07,18,17,13,29.80
2015,07,18,17,14,29.80
2015,07,18,17,15,29.80
2015,07,18,17,16,29.80
2015,07,18,17,17,29.80
2015,07,18,17,18,29.80
2015,07,18,17,19,29.80